Location: Blankensee
(53.5126°N, 14.3055°E)
Time: 06:07:03
(UTC+00:00)

ERBS - Pass Details

Date: 08 August 2020
Orbit: 413 x 420 km, 57.0° (Epoch: 24 September)

Event Time Altitude Azimuth Distance (km) Brightness Sun altitude
Rises 00:31:30 0° 295° (WNW) 2,358 6.1 -18.2°
Reaches altitude 10° 00:33:37 10° 290° (WNW) 1,492 5.0 -18.1°
Enters shadow 00:35:47 34° 270° (W) 701 3.1 -17.9°
